Date String (YYYY-MM-DD hh:mm:ss) UTC,Instrument flags,Ambient pressure (hPa),Sample flow (lpm),Bypass flow (lpm),Sample temperature (°C),Ambient temperature (°C),ASC tube jacket temperature (°C),LED temperature (°C),Box temperature (°C),Sample RH (%),Span deviation,Mass concentration (μg/m³),Mass concentration (μg/m³),Mass concentration (μg/m³)
DateTimeUTC,F1_M11,P_M11,Q1_M11,Q2_M11,T1_M11,T2_M11,T3_M11,T4_M11,T5_M11,U1_M11,ZSPAN_M11,X2_M11,X0_M11,X1_M11
2022-02-22 21:00:00,,0826.0,5.01,0.00,22.7,22.5,00.0,31.6,24.5,03.5,0002.0,0005.21,0008.43,0004.75
2022-02-22 21:01:00,,0826.1,5.00,0.00,22.7,22.3,00.0,31.6,24.5,03.6,0001.8,0005.18,0008.35,0004.73
2022-02-22 21:02:00,,0826.1,5.00,0.00,22.7,22.2,00.0,31.6,24.4,03.7,0001.4,0005.15,0008.67,0004.72
2022-02-22 21:03:00,,0826.1,5.00,0.00,22.7,22.1,00.0,31.6,24.4,03.7,0001.4,0005.20,0008.99,0004.74
2022-02-22 21:04:00,,0826.2,4.99,0.00,22.6,22.0,00.0,31.6,24.3,03.8,0001.2,0005.22,0009.13,0004.74
2022-02-22 21:05:00,,0826.3,5.00,0.00,22.6,21.9,00.0,31.5,24.3,03.6,0001.7,0005.23,0009.13,0004.74
2022-02-22 21:06:00,,0826.3,5.01,0.00,22.6,21.9,00.0,31.5,24.3,03.7,0002.1,0005.24,0009.17,0004.73
2022-02-22 21:07:00,,0826.3,5.00,0.00,22.6,21.9,00.0,31.5,24.3,03.7,0002.2,0005.22,0009.11,0004.73
2022-02-22 21:08:00,,0826.3,5.00,0.00,22.5,21.8,00.0,31.5,24.2,03.8,0001.8,0005.21,0009.10,0004.73
2022-02-22 21:09:00,,0826.3,4.99,0.00,22.5,21.9,00.0,31.5,24.2,03.8,0001.6,0005.24,0009.45,0004.74
2022-02-22 21:10:00,,0826.4,5.01,0.00,22.6,22.5,00.0,31.6,24.4,03.8,0001.8,0005.25,0009.51,0004.74
2022-02-22 21:11:00,,0826.4,5.00,0.00,22.8,23.3,00.0,31.6,24.7,03.7,0001.3,0005.24,0009.46,0004.74
2022-02-22 21:12:00,,0826.4,4.98,0.00,22.9,23.6,00.0,31.7,24.9,03.6,0001.8,0005.24,0009.43,0004.75
2022-02-22 21:13:00,,0826.3,5.00,0.00,22.9,23.2,00.0,31.7,24.8,03.4,0000.8,0005.25,0009.15,0004.75
2022-02-22 21:14:00,,0826.4,5.01,0.00,22.9,23.0,00.0,31.7,24.7,03.4,0000.0,0005.22,0009.26,0004.74
2022-02-22 21:15:00,,0826.5,5.01,0.00,22.8,22.7,00.0,31.7,24.7,03.4,0000.0,0005.23,0009.25,0004.75
2022-02-22 21:16:00,,0826.5,4.98,0.00,22.8,22.5,00.0,31.7,24.6,03.4,0000.0,0005.24,0009.47,0004.75
2022-02-22 21:17:00,,0826.5,5.00,0.00,22.8,22.4,00.0,31.7,24.6,03.3,0000.0,0005.21,0010.10,0004.76
2022-02-22 21:18:00,,0826.4,5.00,0.00,22.8,22.3,00.0,31.7,24.6,03.4,0000.0,0005.24,0010.22,0004.76
2022-02-22 21:19:00,,0826.3,4.99,0.00,22.8,22.2,00.0,31.7,24.6,03.4,0000.0,0005.23,0010.21,0004.76
2022-02-22 21:20:00,,0826.4,5.01,0.00,22.8,22.1,00.0,31.7,24.6,03.3,0000.0,0005.22,0009.94,0004.76
2022-02-22 21:21:00,,0826.4,5.00,0.00,22.8,22.1,00.0,31.7,24.5,03.3,0000.0,0005.20,0009.79,0004.77
2022-02-22 21:22:00,,0826.5,5.01,0.00,22.7,22.0,00.0,31.7,24.5,03.2,0000.0,0005.21,0009.77,0004.79
2022-02-22 21:23:00,,0826.5,5.00,0.00,22.7,22.0,00.0,31.7,24.5,03.3,0000.0,0005.23,0009.84,0004.79
2022-02-22 21:24:00,,0826.5,5.00,0.00,22.7,21.9,00.0,31.7,24.5,03.3,0000.0,0005.26,0010.07,0004.79
2022-02-22 21:25:00,,0826.5,5.00,0.00,22.7,21.9,00.0,31.7,24.5,03.3,0000.0,0005.28,0010.20,0004.81
2022-02-22 21:26:00,,0826.5,5.00,0.00,22.7,21.9,00.0,31.7,24.4,03.4,0000.0,0005.25,0010.02,0004.81
2022-02-22 21:27:00,,0826.5,5.00,0.00,22.7,21.9,00.0,31.7,24.4,03.3,0000.0,0005.23,0009.89,0004.81
2022-02-22 21:28:00,,0826.6,5.00,0.00,22.7,21.9,00.0,31.6,24.4,03.3,0000.0,0005.25,0009.24,0004.80
2022-02-22 21:29:00,,0826.6,5.01,0.00,22.7,21.8,00.0,31.6,24.4,03.3,0000.0,0005.25,0009.16,0004.78
2022-02-22 21:30:00,,0826.6,5.00,0.00,22.6,21.8,00.0,31.6,24.4,03.3,0000.0,0005.26,0009.17,0004.79
2022-02-22 21:31:00,,0826.5,5.00,0.00,22.6,21.8,00.0,31.6,24.4,03.2,0000.0,0005.26,0009.18,0004.79
2022-02-22 21:32:00,,0826.6,5.00,0.00,22.6,21.8,00.0,31.6,24.4,03.2,0000.0,0005.27,0009.34,0004.80
2022-02-22 21:33:00,,0826.6,5.00,0.00,22.6,21.8,00.0,31.6,24.3,03.2,0000.0,0005.26,0009.34,0004.78
2022-02-22 21:34:00,,0826.6,5.00,0.00,22.7,22.5,00.0,31.6,24.5,03.2,0000.0,0005.24,0009.28,0004.77
2022-02-22 21:35:00,,0826.6,5.01,0.00,22.8,23.2,00.0,31.7,24.7,03.2,0000.0,0005.20,0009.10,0004.77
2022-02-22 21:36:00,,0826.6,5.00,0.00,22.9,23.5,00.0,31.7,24.9,03.1,0000.0,0005.15,0008.41,0004.76
2022-02-22 21:37:00,,0826.6,5.00,0.00,23.0,23.2,00.0,31.7,24.9,03.0,0000.0,0005.15,0008.37,0004.75
2022-02-22 21:38:00,,0826.6,4.99,0.00,23.0,23.0,00.0,31.7,24.9,03.1,0000.0,0005.16,0008.40,0004.76
2022-02-22 21:39:00,,0826.6,5.01,0.00,23.0,22.8,00.0,31.8,24.8,03.0,0000.0,0005.16,0008.46,0004.78
2022-02-22 21:40:00,,0826.6,4.99,0.00,22.9,22.6,00.0,31.8,24.8,03.1,0000.0,0005.15,0008.37,0004.81
2022-02-22 21:41:00,,0826.6,5.00,0.00,22.9,22.5,00.0,31.8,24.8,03.1,0000.9,0005.16,0008.58,0004.81
2022-02-22 21:42:00,,0826.7,5.00,0.00,22.9,22.4,00.0,31.8,24.8,03.0,0003.4,0005.20,0008.73,0004.82
2022-02-22 21:43:00,,0826.8,5.01,0.00,22.9,22.3,00.0,31.8,24.8,03.0,0003.8,0005.19,0008.64,0004.82
2022-02-22 21:44:00,,0826.7,5.00,0.00,22.9,22.3,00.0,31.8,24.7,03.1,0003.6,0005.19,0008.61,0004.82
2022-02-22 21:45:00,,0826.7,5.01,0.00,22.9,22.2,00.0,31.8,24.7,03.1,0003.2,0005.19,0008.60,0004.81
2022-02-22 21:46:00,,0826.7,5.00,0.00,22.9,22.2,00.0,31.8,24.6,03.0,0002.7,0005.22,0008.64,0004.82
2022-02-22 21:47:00,,0826.8,5.00,0.00,22.8,22.1,00.0,31.8,24.6,03.0,0002.9,0005.25,0008.73,0004.82
2022-02-22 21:48:00,,0826.8,5.00,0.00,22.8,22.1,00.0,31.8,24.5,02.9,0003.2,0005.25,0008.66,0004.83
2022-02-22 21:49:00,,0826.9,5.01,0.00,22.8,22.0,00.0,31.8,24.5,02.8,0003.5,0005.28,0008.64,0004.84
2022-02-22 21:50:00,,0826.9,4.99,0.00,22.8,22.0,00.0,31.7,24.5,02.9,0003.3,0005.28,0008.52,0004.84
2022-02-22 21:51:00,,0826.9,5.01,0.00,22.8,21.9,00.0,31.7,24.5,03.1,0003.4,0005.29,0008.89,0004.82
2022-02-22 21:52:00,,0826.9,5.00,0.00,22.7,21.9,00.0,31.7,24.5,03.2,0002.4,0005.26,0008.77,0004.81
2022-02-22 21:53:00,,0826.9,5.00,0.00,22.7,21.9,00.0,31.7,24.5,03.2,0002.2,0005.24,0008.73,0004.79
2022-02-22 21:54:00,,0826.9,5.00,0.00,22.7,21.9,00.0,31.7,24.4,03.1,0000.4,0005.25,0009.29,0004.79
2022-02-22 21:55:00,,0827.0,5.00,0.00,22.7,21.8,00.0,31.7,24.4,02.9,0000.0,0005.29,0009.70,0004.81
2022-02-22 21:56:00,,0826.9,5.00,0.00,22.7,22.2,00.0,31.7,24.5,02.8,0000.0,0005.34,0009.82,0004.85
2022-02-22 21:57:00,,0826.9,5.01,0.00,22.8,22.9,00.0,31.8,24.7,02.8,0000.0,0005.32,0009.75,0004.85
2022-02-22 21:58:00,,0826.9,5.00,0.00,23.0,23.6,00.0,31.8,24.9,02.8,0000.0,0005.34,0010.13,0004.88
2022-02-22 21:59:00,,0826.9,4.98,0.00,23.0,23.5,00.0,31.8,25.0,02.9,0001.2,0005.37,0010.69,0004.89
